Temp
22 21 21 22 21 21 21 22 22 22 22 22 22 22 21 21 21 21 21 21 21 22 22 22 21 22 22 22 22 22 22 21 21 21 21 21 20 20 20 20 20 20 20 19 20 20 20 20 20 20 20 20 20 19 19 18 18 18 18 18 17 17 18 18 18 18 18 18 18 18 18 17 17 18 18 18 18 18 18 18 18 18 18 17 17
22 21 21 21 21 21 21 22 21 22 22 22 22 22 21 21 21 20 21 21 21 21 21 22 21 22 21 22 21 22 21 21 21 21 21 21 20 20 20 20 20 20 20 20 20 20 20 20 20 20 20 20 20 19 19 18 18 18 18 18 17 17 18 18 18 18 18 18 18 18 17 17 17 17 18 18 18 18 18 18 18 18 17 17 17
22 21 21 21 21 21 21 21 21 22 22 22 22 22 21 21 21 20 21 21 21 21 21 21 21 21 21 21 21 21 21 21 21 20 21 21 20 20 20 21 20 20 20 20 20 20 20 20 20 20 20 20 19 19 18 18 18 18 18 18 18 18 18 18 18 18 18 18 18 18 18 17 17 17 17 17 17 17 18 18 18 17 17 16 16
22 21 21 21 21 21 21 21 21 21 22 22 22 22 22 21 21 20 20 20 21 21 21 21 21 21 21 21 21 21 21 20 20 20 20 21 20 20 20 20 20 20 20 20 20 20 20 20 20 20 19 19 19 18 18 18 18 18 18 18 18 18 19 19 18 18 18 18 19 19 19 18 17 17 17 17 17 17 17 17 17 17 16 16 16
22 21 21 21 20 20 21 21 21 21 22 22 22 22 21 21 20 20 20 20 21 21 21 21 21 21 21 21 21 21 21 20 20 20 20 20 20 20 20 20 20 20 20 20 20 20 19 19 20 20 19 19 19 18 18 18 18 18 18 19 19 19 19 19 19 19 18 19 20 20 20 19 18 17 16 17 17 17 17 17 16 16 16 16 16
22 21 21 20 20 20 20 21 21 21 21 21 21 21 21 21 21 20 20 20 21 21 21 21 21 21 21 21 21 21 21 20 20 20 20 20 20 20 20 20 20 20 20 20 20 19 19 19 19 20 19 19 19 18 18 19 18 18 18 18 19 19 20 20 20 20 19 20 20 21 20 19 18 17 16 17 17 17 16 16 16 16 16 16 16
22 21 21 20 20 20 20 21 21 21 21 21 21 21 21 21 21 20 20 20 21 21 21 21 21 21 21 21 21 21 20 20 20 20 20 20 20 20 20 20 19 19 20 20 19 19 19 19 19 19 19 19 19 18 18 19 18 18 18 18 19 19 20 20 20 20 20 20 21 22 21 20 19 17 17 17 17 16 16 16 17 16 16 17 16
22 21 21 20 20 20 20 20 21 21 21 21 21 21 21 21 21 21 20 20 21 21 21 21 21 21 21 20 20 20 20 20 20 20 20 20 20 20 19 19 19 19 20 19 19 19 19 19 19 19 19 18 18 18 18 18 18 18 19 19 18 19 19 20 20 20 20 21 22 22 21 20 19 18 17 17 16 16 17 17 17 16 17 17 17
22 21 20 20 20 20 20 20 21 21 21 21 21 21 21 21 21 21 20 20 21 21 21 21 21 21 21 20 20 20 20 20 20 20 20 20 19 20 20 19 19 19 19 19 19 19 19 19 18 19 19 18 18 18 18 18 18 18 18 19 19 19 19 20 20 20 21 22 23 22 21 20 19 18 17 17 17 16 17 17 17 16 16 16 16
22 21 20 19 19 19 20 20 21 21 21 21 21 21 21 21 21 21 20 20 20 21 21 21 21 21 21 20 20 20 20 20 20 20 20 20 20 20 20 20 19 19 19 19 19 19 19 18 19 19 19 18 18 18 18 18 18 18 18 19 19 19 20 21 21 21 21 22 22 21 21 20 19 18 17 17 17 16 17 17 17 16 16 16 16
22 20 19 19 19 20 20 21 21 21 20 20 20 21 21 21 21 21 21 20 20 20 20 20 20 21 20 20 20 20 20 20 20 20 20 19 19 20 20 20 19 19 19 19 19 19 19 18 19 19 19 18 18 18 18 18 18 18 18 18 19 20 20 21 21 22 22 22 21 21 20 20 19 17 16 16 17 16 17 17 16 16 16 16 15
21 20 19 19 20 20 21 21 21 20 20 20 20 20 21 21 21 21 21 20 20 20 20 20 20 20 20 20 20 20 20 20 20 20 20 19 19 19 20 19 19 19 19 19 19 19 19 19 19 19 19 18 17 18 18 18 18 18 18 18 19 20 20 21 21 22 22 21 21 21 21 19 18 17 16 16 16 16 16 16 16 16 16 15 15
22 21 19 19 20 20 20 20 20 20 20 20 20 20 20 20 21 21 20 20 20 20 20 20 20 20 20 20 20 20 20 20 20 20 20 19 19 19 20 19 19 19 19 19 19 19 19 19 19 19 19 18 17 18 18 18 18 18 18 18 19 20 20 21 21 22 22 21 21 21 21 18 17 16 16 17 16 16 16 16 15 15 15 15 15
22 21 20 19 19 20 20 20 20 21 20 21 21 21 20 20 20 20 20 20 20 20 20 20 20 20 20 20 20 20 20 20 20 20 20 20 19 19 19 19 19 19 19 19 18 18 18 19 19 19 18 18 17 18 18 18 18 18 18 18 19 20 20 21 22 23 22 21 21 21 20 18 17 16 16 17 16 16 16 16 15 15 15 15 15
22 21 20 19 19 19 19 19 20 20 21 21 21 21 21 20 20 20 20 20 20 20 20 20 20 20 20 20 20 20 20 20 20 20 20 19 19 19 19 19 19 19 19 18 18 18 18 18 18 18 18 17 17 18 18 18 18 18 18 18 19 20 20 20 22 23 22 22 21 21 20 17 17 16 16 17 16 16 16 15 15 15 15 15 15
23 22 21 20 20 19 19 19 20 20 20 20 20 20 20 20 20 20 20 20 20 20 20 20 20 20 20 19 20 20 20 19 19 20 20 19 19 19 19 19 19 19 18 18 18 18 18 18 18 18 18 17 18 18 18 18 18 18 18 18 19 20 20 20 22 23 22 22 21 21 19 17 17 16 16 16 16 16 15 15 15 15 15 15 15
24 23 22 20 20 20 19 19 20 20 20 20 20 20 20 20 20 20 20 20 20 20 20 19 19 20 19 19 19 19 19 19 19 19 19 19 19 19 19 19 19 19 18 18 18 18 18 18 18 18 18 18 18 18 18 18 18 18 18 18 19 19 20 20 21 23 22 22 22 21 19 17 17 16 16 16 16 16 15 15 15 15 15 15 14
24 24 23 22 21 20 20 19 19 19 19 20 20 20 20 20 20 20 20 20 20 20 20 19 19 20 20 19 19 19 19 19 19 19 19 19 19 19 19 19 19 19 18 18 18 18 18 18 18 18 18 18 18 18 18 18 18 18 18 18 19 19 20 21 22 22 21 21 22 21 18 17 17 16 16 16 16 16 15 15 15 15 14 14 14
23 24 24 23 22 21 20 20 19 19 19 19 19 19 20 19 20 20 20 20 20 20 20 20 20 20 20 19 19 19 19 19 19 19 19 19 19 19 19 19 19 19 18 18 18 18 18 18 18 18 18 18 18 18 18 18 18 18 18 18 18 19 20 21 22 22 21 21 21 20 18 18 17 16 16 16 16 15 15 15 15 14 14 14 14
23 23 23 24 24 22 21 20 20 20 19 19 19 19 19 19 19 19 19 19 20 20 20 20 20 19 19 19 19 19 19 19 19 19 19 19 19 19 19 19 19 19 18 18 18 18 17 17 18 18 18 18 18 18 18 18 18 18 18 18 18 20 20 20 22 22 22 22 21 19 18 19 17 16 16 16 16 15 15 15 15 15 14 14 14
22 22 23 23 24 23 23 21 20 20 20 19 19 19 19 19 19 19 19 19 19 19 20 20 19 19 19 19 19 19 19 19 19 19 19 19 19 19 19 19 19 19 18 18 18 18 17 17 18 18 18 18 18 18 18 18 18 18 18 18 19 19 20 20 21 22 22 22 20 19 19 19 17 16 16 16 16 15 15 15 15 15 14 14 14
23 23 22 22 23 23 23 22 21 20 20 19 19 18 18 18 18 18 19 19 19 19 19 19 19 19 19 19 19 19 19 19 19 19 18 18 18 19 19 19 19 19 18 18 18 18 17 17 17 18 18 18 18 18 18 18 18 18 18 18 18 19 20 20 21 22 22 22 20 19 19 19 17 16 16 16 16 15 15 15 15 14 14 14 14
24 23 22 22 22 22 23 23 22 21 20 20 19 19 18 18 18 18 18 19 19 19 19 19 19 19 19 19 19 19 19 19 19 19 19 18 18 19 19 19 19 18 18 19 19 18 17 17 17 18 18 18 18 19 19 18 18 18 18 18 18 19 20 20 21 22 22 21 19 19 19 18 17 16 16 16 16 15 15 15 15 14 14 14 14
23 23 22 21 21 21 22 22 22 22 21 20 20 19 18 18 18 18 18 18 18 19 19 19 20 20 20 20 19 19 19 19 18 18 18 18 18 18 19 18 18 18 18 18 19 19 18 17 17 18 18 18 19 20 20 19 18 18 18 18 19 20 21 21 21 22 22 21 19 18 19 18 16 16 16 16 16 15 15 15 15 14 14 14 14
23 23 22 21 21 21 21 21 21 21 21 21 20 19 19 18 18 18 18 18 19 19 19 19 20 20 20 20 20 20 19 19 19 19 19 18 18 18 19 18 18 18 18 18 18 18 18 17 17 18 18 18 20 21 21 21 19 19 19 19 20 21 21 21 21 22 22 20 19 19 18 17 16 17 16 16 16 15 15 15 15 14 14 14 14
23 22 22 21 21 22 21 21 21 21 21 22 21 19 18 19 18 18 18 18 19 19 18 19 19 19 19 20 20 19 20 19 19 19 19 19 18 18 19 18 18 18 18 19 19 18 18 18 18 18 18 19 21 21 21 21 20 20 20 20 20 21 21 21 21 21 22 20 19 19 18 17 17 16 16 16 16 15 15 15 15 14 14 14 14
22 22 21 21 21 21 21 21 21 21 21 22 22 20 18 18 18 18 18 18 18 18 18 18 19 19 19 20 20 19 19 19 19 19 19 19 18 18 18 18 19 19 19 19 20 19 19 19 19 19 20 21 21 21 20 21 21 21 21 21 21 21 21 21 21 21 21 20 19 19 18 17 17 16 16 16 16 15 15 15 15 14 14 14 14
22 21 21 21 21 21 20 20 20 20 20 21 22 21 20 18 17 17 17 18 18 18 17 18 19 19 19 19 19 19 19 19 19 19 19 19 19 18 18 18 19 19 19 20 20 20 20 20 20 20 21 21 21 21 21 20 20 21 21 21 21 21 21 21 21 21 21 20 19 19 19 18 17 16 16 16 16 16 16 15 15 14 14 14 13
21 21 20 20 20 20 20 19 19 20 20 20 21 21 20 19 18 17 17 17 17 17 17 18 19 19 19 19 19 19 19 18 18 18 19 20 19 19 19 19 19 20 20 21 21 20 20 20 20 20 21 22 22 22 21 21 21 20 21 22 22 21 21 21 21 21 21 20 19 19 19 18 17 16 16 16 16 16 16 16 15 15 14 14 14
20 20 20 20 20 20 19 19 19 19 20 20 20 20 20 20 19 18 18 17 17 17 17 17 18 18 18 18 18 18 19 18 18 19 20 20 20 19 19 19 19 19 20 20 20 20 20 20 20 20 21 22 22 22 21 21 21 21 21 21 22 21 22 21 21 21 21 21 20 19 18 18 18 17 16 16 16 16 16 16 15 15 14 14 14
20 20 20 20 20 19 19 19 18 18 19 19 19 19 19 19 19 19 19 18 17 17 18 17 18 18 17 17 18 18 18 19 19 19 19 19 20 19 19 19 19 19 20 20 20 20 20 20 20 20 21 22 22 22 21 21 21 21 21 21 22 22 22 22 21 21 21 21 20 19 19 18 18 17 17 16 16 16 16 16 15 15 15 14 14
20 20 20 19 19 19 18 18 17 17 18 19 19 19 19 19 19 19 19 18 18 19 19 18 18 18 18 17 17 17 18 18 18 19 19 19 19 19 20 20 20 20 20 21 20 21 21 20 20 21 21 22 22 22 21 21 21 21 22 22 22 22 22 22 22 22 21 21 21 20 19 19 18 18 17 16 16 16 16 16 16 15 15 15 14
20 19 19 18 18 18 17 17 17 17 17 18 18 18 18 19 19 19 19 18 19 19 19 19 18 18 17 17 17 17 18 18 18 18 19 19 19 19 20 19 20 20 20 21 20 20 20 20 20 21 21 21 22 22 21 21 21 21 22 22 22 22 22 22 22 22 22 21 21 21 19 19 18 18 18 17 16 16 16 16 16 15 15 15 15
20 19 19 18 18 18 17 17 17 17 17 17 18 18 18 18 19 19 18 18 18 19 19 19 19 18 18 18 17 17 18 18 18 18 18 19 18 18 19 18 19 20 20 20 20 20 20 20 20 20 20 20 21 21 21 21 21 21 22 22 22 22 22 22 22 22 22 21 21 21 21 20 19 18 18 17 16 16 16 16 15 15 15 15 15
20 19 19 18 18 17 17 17 17 17 17 17 17 17 17 18 18 18 18 18 18 18 18 18 19 19 19 18 17 17 17 18 18 18 18 18 18 18 18 18 19 20 19 20 20 20 20 20 20 20 20 20 21 21 21 21 21 21 22 22 22 22 22 22 22 22 22 21 21 21 21 21 20 19 18 17 17 17 16 16 15 15 15 15 14
20 19 19 18 18 17 17 17 17 17 17 17 17 17 17 17 18 18 17 17 18 18 18 18 19 19 19 19 18 17 17 17 17 17 17 18 18 18 18 18 19 19 19 19 20 20 20 21 21 20 20 21 21 22 22 21 21 21 21 21 21 22 22 21 22 22 22 22 21 21 21 21 21 20 19 19 18 17 17 17 16 15 15 15 15
20 19 19 18 18 17 17 17 17 17 17 16 17 17 17 17 18 17 17 17 18 18 18 18 18 18 18 19 18 17 17 17 17 17 17 17 18 18 18 18 18 19 19 19 19 19 20 20 21 20 20 21 22 22 23 22 22 21 21 21 21 21 22 22 22 22 22 22 22 21 21 21 21 20 20 20 19 18 18 17 17 16 15 15 15
19 19 19 19 18 18 17 17 16 16 16 16 17 17 17 17 18 17 17 17 17 17 18 18 18 18 18 18 17 17 17 17 17 17 17 17 18 17 18 18 18 19 19 18 18 19 19 19 20 20 20 21 21 22 23 23 23 22 22 21 21 21 21 22 22 22 22 22 22 22 21 21 20 20 20 20 20 19 18 17 17 16 16 15 15
19 19 19 19 19 18 17 17 16 16 16 16 17 18 18 18 18 18 18 18 18 17 17 18 18 18 18 17 16 16 17 17 17 17 17 17 17 17 17 17 18 18 18 18 18 18 18 19 19 19 19 20 21 22 22 22 23 23 22 22 21 21 21 21 21 22 22 22 22 22 22 21 21 20 20 19 19 19 18 17 17 16 16 15 15
19 19 19 19 19 18 17 17 17 17 17 17 18 19 19 19 19 19 19 18 18 17 17 17 17 17 17 16 16 16 16 16 16 16 16 16 17 17 17 17 17 17 17 17 18 18 18 18 19 19 19 19 20 21 21 21 23 23 22 22 21 21 21 21 21 21 21 21 22 22 22 21 21 21 20 20 19 19 19 18 17 16 16 16 16
19 19 18 18 18 18 18 17 17 17 18 18 19 19 19 19 19 19 19 19 18 18 17 17 16 16 16 16 16 16 16 16 16 16 16 16 16 17 17 17 17 17 17 17 17 17 17 18 18 18 18 19 19 20 20 20 21 23 22 21 21 21 21 21 21 21 21 21 21 22 22 21 21 21 20 20 19 19 19 19 18 18 18 17 17
19 19 18 18 18 18 18 17 17 17 17 18 18 18 18 18 18 18 18 19 18 18 17 16 16 16 15 15 15 15 15 15 16 16 16 16 16 17 17 17 17 16 17 17 17 17 17 17 17 18 18 19 19 19 20 20 20 22 23 22 21 21 21 21 21 21 21 21 21 21 22 21 21 21 20 20 20 19 20 20 19 19 18 18 17
20 19 19 19 18 18 18 17 17 17 17 17 17 17 17 17 17 17 17 18 17 16 16 16 15 16 15 15 15 15 15 15 16 16 16 16 16 16 17 17 17 16 16 16 17 17 16 17 17 17 18 18 19 19 19 20 20 21 23 22 21 21 21 21 21 21 21 21 21 21 22 21 21 21 21 20 20 20 20 20 19 19 19 18 18
20 19 19 19 18 18 18 18 17 17 17 16 17 16 16 15 16 16 16 16 16 16 16 16 16 16 16 16 16 15 15 15 15 16 16 16 16 16 16 17 17 17 17 17 17 17 16 17 17 17 17 17 18 18 19 19 18 19 21 22 22 22 21 21 21 21 21 21 21 21 21 21 21 21 21 21 20 20 20 20 20 19 19 19 19
20 20 19 19 19 18 18 18 17 17 17 16 16 16 15 15 15 16 16 16 17 17 17 17 16 16 16 16 15 15 15 15 15 15 16 16 16 16 16 16 17 17 17 17 17 17 17 17 17 17 17 16 17 17 18 18 18 18 19 21 22 22 22 23 22 21 21 21 21 22 21 21 21 21 21 21 21 20 20 20 20 19 19 19 19
20 20 19 19 19 19 18 18 17 17 17 16 16 16 16 17 17 17 18 18 18 17 17 16 16 16 16 15 15 15 15 15 15 15 15 15 15 16 16 16 16 16 17 17 17 17 17 17 17 17 17 16 16 17 17 17 17 18 19 20 20 21 22 23 23 22 22 21 21 22 21 21 21 21 21 21 21 21 20 20 20 19 19 19 18
21 20 19 19 19 19 18 18 17 17 17 16 16 16 17 17 17 17 17 18 18 17 16 15 15 15 15 15 15 15 15 15 15 15 15 15 15 15 15 16 16 16 16 17 17 17 17 17 17 17 17 17 16 16 16 16 16 17 18 19 19 20 21 22 23 23 23 22 21 22 22 22 21 21 22 21 21 21 21 20 20 19 19 18 18
21 20 19 19 19 19 18 18 18 17 17 16 16 16 17 17 16 17 17 17 17 16 15 15 15 15 15 15 15 15 15 15 15 15 15 15 15 15 15 15 16 16 16 17 17 17 17 17 17 17 17 16 16 16 17 17 17 17 18 18 18 19 20 21 22 23 23 23 22 22 22 22 22 21 21 22 21 21 21 20 20 19 19 19 18
21 20 19 19 18 19 18 17 18 17 16 16 16 16 16 16 16 17 17 17 16 16 16 16 15 15 15 15 15 15 15 15 15 15 15 15 15 15 15 15 15 16 16 16 17 17 17 17 17 17 17 17 17 17 17 17 17 17 17 17 18 18 18 20 22 22 23 23 22 22 22 22 22 22 22 22 21 21 21 20 19 19 19 19 18
21 20 19 18 18 18 18 17 17 17 16 16 16 16 15 16 16 16 16 16 16 16 16 15 15 15 15 15 15 15 15 15 15 14 14 14 15 14 15 15 15 15 15 16 16 16 17 17 17 17 17 17 17 16 16 16 16 17 17 17 17 17 18 20 21 22 23 22 22 23 23 23 22 22 22 22 21 21 21 20 19 19 20 19 19
20 19 19 18 18 18 18 17 17 17 16 16 16 15 15 16 16 15 15 15 15 15 15 15 15 15 15 15 15 15 15 15 15 14 14 14 14 14 14 14 14 15 15 16 16 16 16 16 17 17 17 17 16 16 16 16 16 16 17 17 17 17 18 19 20 21 22 22 22 22 23 24 23 23 22 22 21 20 20 20 19 19 20 20 19
Height
788 789 791 791 793 793 795 795 797 797 799 799 799 799 799 800 801 802 803 804 805 806 806 807 808 809 809 809 810 811 812 812 813 813 814 815 815 816 816 818 818 819 819 820 820 821 822 822 823 823 822 822 822 823 824 825 826 825 826 826 826 826 826 828 830 830 830 830 829 829 828 829 830 831 831 832 832 833 833 833 833 833 833 834 835
788 790 791 792 793 794 796 796 798 797 799 799 799 800 800 801 801 803 803 805 806 807 807 808 809 809 810 810 812 812 813 813 814 815 815 816 816 817 818 819 819 820 820 821 822 822 823 823 824 824 824 823 823 824 825 826 827 827 827 827 827 827 828 829 831 832 832 832 831 830 830 831 832 832 833 833 834 834 834 835 835 835 835 836 837
788 791 791 793 794 795 797 797 799 799 800 800 800 801 801 802 802 804 804 806 807 807 808 809 810 810 811 811 812 813 814 814 815 816 816 817 818 818 819 820 820 821 821 822 823 823 824 824 825 825 826 825 825 825 826 828 828 828 828 828 828 828 830 831 832 833 834 833 832 831 832 833 833 834 834 835 835 835 835 836 836 836 837 838 838
789 791 792 793 795 796 797 798 800 800 801 801 802 802 802 803 803 805 805 806 807 808 809 810 811 812 813 813 813 814 815 815 816 817 817 818 819 820 820 821 821 822 822 823 824 824 825 825 826 826 827 827 827 826 827 828 829 830 829 830 829 830 831 832 834 834 834 833 832 832 834 835 835 835 836 836 837 837 837 837 837 838 838 839 839
789 790 792 794 796 798 798 799 800 801 802 802 803 803 803 804 804 805 806 807 808 809 810 811 812 813 814 814 814 815 816 816 817 818 818 819 820 821 821 822 823 823 823 824 824 825 826 826 827 827 828 828 828 828 828 829 830 831 830 831 830 831 833 834 835 835 834 833 833 834 836 836 837 837 837 838 838 838 838 839 839 839 840 840 841
790 790 793 794 797 798 798 799 801 802 802 803 804 804 804 804 805 805 806 807 808 809 810 812 813 814 814 815 816 816 817 817 818 819 819 820 820 821 822 823 824 824 824 824 825 826 827 827 828 828 828 829 829 829 829 830 831 832 832 832 831 833 834 835 836 835 835 834 835 836 838 838 838 839 839 840 840 840 840 840 840 841 841 842 842
790 792 793 793 796 797 798 799 801 802 803 804 804 805 805 805 805 806 806 807 808 809 810 812 813 814 815 816 816 817 818 818 819 820 820 821 822 822 823 824 824 825 825 825 826 827 828 828 829 829 829 830 830 831 831 831 832 833 833 832 833 834 836 837 837 837 835 835 836 838 839 839 840 840 841 841 841 841 841 841 841 842 842 843 844
790 793 794 794 794 796 798 800 802 803 803 804 805 805 805 806 806 806 807 808 809 809 810 811 813 814 815 816 817 818 819 820 820 821 821 822 823 823 824 825 825 826 826 826 827 827 828 829 830 830 830 830 831 832 833 832 833 834 834 833 834 835 837 838 838 838 836 837 838 839 840 840 841 841 842 842 843 842 842 842 843 843 843 844 845
791 792 794 795 795 797 798 800 802 802 804 804 805 806 806 806 806 807 808 809 809 810 810 811 813 814 815 816 817 818 819 821 821 822 822 822 823 824 825 825 826 826 826 827 828 828 829 830 830 830 831 831 832 833 834 834 834 834 835 835 835 837 837 838 839 839 838 839 840 841 841 841 842 843 844 844 844 844 843 844 844 844 844 845 846
791 792 794 796 797 799 800 801 802 802 804 804 804 805 806 807 807 808 808 809 810 811 811 812 813 814 815 816 817 818 820 821 821 822 823 823 824 825 826 826 827 827 828 828 828 829 830 830 831 831 831 832 832 834 835 835 835 835 836 836 836 838 838 839 840 839 840 841 841 842 842 842 843 844 844 845 845 845 845 845 845 845 845 846 846
792 793 793 795 797 799 800 801 802 803 803 804 805 805 807 807 808 809 809 810 811 812 812 813 813 814 815 816 817 818 819 821 822 823 824 824 825 826 826 827 828 828 829 829 829 830 830 831 831 831 832 832 833 834 835 836 836 836 837 837 838 838 838 839 840 841 842 842 842 843 843 843 844 844 845 846 846 846 846 846 846 846 846 847 847
793 794 794 795 797 799 801 802 802 802 803 804 805 805 807 808 809 809 810 811 811 813 813 813 814 814 816 816 818 819 820 821 823 824 824 825 826 826 827 828 828 829 830 829 830 830 831 831 831 832 832 833 834 835 836 836 837 837 838 839 839 839 839 840 840 843 843 843 843 844 844 844 844 845 846 847 847 847 847 847 848 848 848 848 848
795 795 795 796 797 799 801 801 802 803 804 805 805 806 807 809 810 810 811 812 812 813 813 813 814 815 816 817 818 819 820 822 823 824 825 826 826 827 828 828 829 830 830 830 831 831 832 832 832 833 833 834 835 836 836 837 838 838 839 840 840 840 840 840 841 843 844 844 844 844 845 845 845 846 847 848 848 848 849 849 849 849 849 849 849
796 796 797 798 798 800 800 801 802 803 804 805 805 806 807 809 810 811 812 812 813 813 813 814 814 815 816 817 819 819 821 822 824 825 826 827 827 828 828 829 829 830 830 831 832 832 832 833 833 833 834 835 835 836 836 838 839 839 840 841 841 841 841 841 842 844 844 845 845 845 845 845 846 847 848 849 849 849 850 850 850 850 850 850 850
797 798 798 799 798 800 800 801 802 804 804 805 806 807 808 809 810 811 812 813 813 814 814 814 815 816 817 818 819 820 821 822 824 825 826 827 828 828 829 830 830 831 831 832 832 832 833 833 834 834 834 835 836 837 837 838 839 840 841 842 842 842 842 841 843 845 845 845 845 846 846 846 846 847 849 849 850 850 850 851 851 851 851 851 851
798 799 799 799 800 800 800 801 802 803 804 806 807 808 809 810 811 812 812 813 813 814 814 815 816 817 818 818 819 820 821 823 824 825 827 828 828 829 829 830 830 831 831 832 832 833 833 833 834 834 835 836 837 837 838 839 839 841 842 843 843 842 843 841 842 845 845 846 846 846 846 846 847 848 849 850 850 851 851 851 851 852 852 852 852
798 799 800 800 801 801 801 801 802 804 805 806 807 808 810 810 811 812 812 813 814 815 815 816 817 817 818 818 819 820 822 823 824 825 827 828 829 829 830 830 831 831 832 832 832 833 833 834 834 835 836 837 837 838 839 839 840 841 842 843 843 843 843 842 843 845 845 846 846 847 847 847 848 849 850 850 851 851 851 852 852 852 852 853 853
799 800 800 801 801 802 802 802 803 804 805 806 808 809 809 810 811 812 813 813 814 815 815 816 817 818 818 819 819 820 822 823 824 825 826 828 829 830 830 830 831 831 832 832 833 833 834 834 835 836 837 838 838 839 839 840 840 841 842 844 844 844 844 843 844 845 846 846 847 847 846 847 848 850 851 851 851 851 852 852 852 852 853 853 853
801 801 801 801 802 803 803 804 804 805 806 807 808 809 809 810 811 812 813 814 815 815 816 816 817 818 819 819 819 820 821 823 824 825 826 827 828 829 830 830 831 832 832 832 833 834 834 835 836 836 838 839 839 840 840 840 841 842 843 844 844 845 844 844 844 846 846 847 847 846 846 848 849 851 851 851 852 852 852 852 852 852 853 853 854
802 803 803 803 802 804 804 805 805 805 807 807 808 809 809 810 811 812 813 814 815 815 816 816 817 818 819 819 819 820 821 822 823 824 825 827 828 829 830 830 831 832 832 833 834 834 835 836 836 837 838 839 840 840 840 841 841 842 843 843 844 845 845 844 845 846 846 847 847 846 847 848 849 851 852 852 852 852 852 852 852 853 853 853 854
803 804 804 804 804 804 804 805 805 806 807 807 808 808 809 810 811 812 813 814 815 816 816 816 817 818 819 819 819 820 821 822 823 824 825 826 827 828 829 830 831 832 833 833 834 835 836 837 837 838 839 840 841 841 841 841 842 842 843 843 844 844 845 846 846 846 846 847 847 846 847 848 850 851 852 853 853 853 852 852 853 853 853 854 855
802 804 805 806 805 805 805 806 806 806 807 807 808 808 809 810 811 813 813 814 815 816 817 817 818 818 818 818 819 819 820 821 822 823 824 826 826 827 828 830 831 832 833 833 834 835 836 837 838 839 839 840 841 841 841 842 842 843 843 843 844 845 846 846 847 847 847 847 846 846 847 848 850 852 852 853 853 853 853 853 854 853 853 854 855
802 804 806 806 806 806 806 806 806 807 807 807 807 808 808 809 811 812 812 813 814 815 817 818 818 818 818 818 819 819 820 821 822 823 823 825 825 826 828 829 831 832 833 833 834 836 837 838 839 840 840 840 841 841 841 842 842 843 843 843 844 845 846 846 847 847 848 847 846 846 847 848 850 852 852 853 853 853 853 854 854 854 854 854 855
804 804 806 807 807 807 807 807 807 807 807 807 807 807 808 809 811 812 812 813 814 815 817 819 819 818 818 818 819 819 820 820 821 822 823 824 825 826 828 829 831 832 833 833 834 836 837 838 839 840 840 840 841 841 841 841 842 843 843 844 844 845 845 846 847 847 848 847 846 847 848 849 850 852 852 853 853 854 854 854 854 854 854 855 855
803 804 806 807 807 807 807 807 807 807 807 808 808 807 807 809 810 811 812 813 814 815 817 819 819 818 818 818 819 818 819 820 821 822 822 823 824 825 827 829 830 831 832 833 834 835 837 839 840 841 840 840 840 840 840 841 842 843 843 844 844 844 845 846 846 846 847 846 846 848 848 849 850 852 853 853 854 854 854 855 855 855 854 855 855
803 805 806 807 808 807 807 808 808 808 808 808 808 808 808 808 809 810 811 812 813 814 816 818 818 818 817 817 818 817 819 819 819 820 821 821 822 824 825 828 829 830 831 833 834 835 836 838 839 840 839 839 840 841 841 841 841 842 843 843 843 844 845 845 846 846 847 846 846 847 848 849 851 852 853 853 854 854 855 855 855 855 855 855 856
804 805 807 808 808 808 808 808 808 808 808 808 808 809 809 809 809 810 809 810 811 812 816 818 818 817 816 816 817 817 819 819 818 819 820 820 821 822 824 826 827 829 830 831 833 834 835 836 837 838 838 839 839 840 841 841 841 841 842 842 843 843 844 845 845 846 847 846 846 847 848 849 851 852 853 853 854 854 855 855 855 855 855 855 856
805 806 807 808 808 808 808 809 809 809 809 809 809 809 810 810 810 811 811 811 812 814 817 818 817 816 815 816 816 818 819 819 819 820 820 820 820 820 822 824 826 828 829 830 831 832 834 835 836 837 837 838 838 840 841 841 841 841 841 841 842 843 843 844 844 845 847 846 845 847 847 848 850 851 853 854 854 855 855 856 856 856 855 856 856
806 807 808 808 809 809 809 809 809 809 809 809 810 810 811 812 812 813 812 813 814 815 817 817 816 816 815 815 816 818 819 820 821 820 820 819 818 819 820 822 824 826 828 829 830 831 833 834 835 836 836 837 837 838 840 840 841 841 841 841 841 842 843 844 844 845 846 846 845 845 847 848 849 851 852 853 854 855 855 856 856 856 856 856 856
807 808 808 809 809 810 810 810 810 810 810 810 810 811 812 812 812 813 813 814 815 814 815 815 815 815 815 815 816 818 819 819 820 819 818 818 818 819 820 822 824 826 827 827 829 830 832 833 834 835 836 836 836 837 839 840 840 840 841 840 841 841 842 842 843 844 844 845 844 844 846 847 848 850 851 852 854 855 855 856 856 856 856 856 856
808 808 809 809 810 810 810 810 810 810 810 810 811 812 812 812 813 813 813 814 814 814 814 814 814 814 815 816 816 817 818 817 818 818 818 818 818 819 820 822 825 825 825 826 827 829 830 832 833 834 834 835 835 836 838 839 839 839 840 840 840 840 841 841 842 843 843 844 844 843 844 846 847 848 850 851 852 854 855 856 856 856 856 856 856
808 808 809 810 810 811 811 811 811 811 811 811 811 812 812 812 813 813 813 813 814 814 814 813 813 813 813 814 815 816 817 817 817 818 819 819 819 819 818 821 823 824 824 825 826 828 829 831 832 833 833 833 834 835 836 838 838 838 838 839 839 839 839 840 841 842 842 843 843 843 843 844 845 846 848 850 851 853 854 855 855 856 856 856 857
807 809 810 810 811 811 812 812 811 811 811 811 811 812 812 812 813 813 813 813 813 813 813 813 812 812 811 812 813 814 816 817 817 818 819 819 819 819 819 820 822 823 823 824 826 827 828 830 831 832 832 833 833 834 835 836 837 837 837 837 837 838 838 838 839 840 841 842 842 843 842 842 843 844 846 848 849 851 852 854 855 855 856 856 856
807 809 810 811 812 812 812 812 812 812 812 812 812 812 812 812 813 813 813 813 813 812 812 812 812 812 811 811 812 813 814 816 816 817 818 819 819 820 820 821 823 823 822 823 825 826 826 828 830 830 832 833 833 833 834 835 836 836 836 836 836 836 837 837 838 839 840 840 841 842 842 842 842 843 844 846 847 849 851 852 853 854 855 855 856
806 809 810 811 812 812 813 813 813 813 813 813 812 813 813 812 813 813 813 812 812 812 812 812 812 811 811 811 811 811 813 814 814 815 817 819 819 819 819 821 824 823 822 823 824 825 825 826 828 829 830 831 832 832 833 834 835 835 835 835 835 835 836 836 837 837 838 839 840 841 842 842 842 842 843 844 845 846 848 850 852 853 854 854 855
806 809 810 811 812 812 813 813 813 813 813 813 813 813 813 813 813 813 813 812 812 812 812 812 811 811 811 811 811 811 812 813 813 815 816 817 817 818 817 819 822 823 822 822 822 824 824 825 826 828 829 830 830 830 831 833 834 834 834 834 834 834 835 835 835 836 836 838 839 840 841 841 842 842 843 843 843 844 846 847 849 851 852 853 854
806 808 809 811 812 812 813 813 814 814 813 813 813 813 813 814 813 813 813 812 812 812 812 812 811 811 811 811 811 811 812 813 813 814 815 815 815 816 817 818 820 821 821 821 821 822 823 824 825 826 827 828 829 828 828 830 831 833 833 833 833 833 833 834 834 835 835 836 837 838 839 840 841 842 843 844 843 843 843 845 847 848 850 852 853
806 807 809 810 811 812 812 813 813 813 814 813 813 813 813 813 813 813 813 812 813 812 812 812 812 812 811 811 811 811 812 812 814 814 814 814 814 815 817 818 819 819 820 820 821 822 822 823 824 825 826 827 827 827 826 827 828 830 831 832 832 832 832 832 833 834 834 835 835 837 837 838 840 841 842 843 844 843 842 843 845 846 847 849 851
805 807 808 809 810 811 812 812 813 813 814 813 813 813 812 813 813 813 813 813 813 812 812 812 812 812 811 812 811 811 812 812 813 814 814 815 814 814 815 816 817 818 818 819 820 821 821 822 823 824 825 826 826 826 826 825 825 827 829 830 830 831 831 831 832 832 833 833 834 835 836 837 838 839 840 841 843 843 842 842 843 845 846 847 848
804 806 807 808 809 810 811 812 812 813 813 813 813 813 813 813 813 813 813 813 812 812 812 812 812 812 812 812 812 812 812 812 813 813 814 815 815 814 815 816 816 816 817 817 818 819 821 822 822 823 824 825 825 825 826 825 824 825 827 829 829 829 830 830 831 831 831 832 833 834 834 835 836 837 839 840 841 842 842 841 841 843 844 844 846
803 805 806 807 808 809 810 811 812 812 812 812 813 813 813 813 813 814 813 812 813 812 812 812 812 812 812 812 812 812 812 812 812 813 814 814 815 815 815 815 815 815 816 816 816 817 819 821 821 822 823 823 823 824 824 825 825 823 825 828 828 828 829 829 829 829 829 830 831 832 832 833 834 835 837 838 840 840 840 840 840 842 843 842 843
800 803 804 806 807 808 809 810 811 812 812 812 813 813 814 814 813 813 813 813 813 812 812 812 812 812 812 812 812 812 812 812 812 812 813 813 814 814 814 815 814 815 815 815 815 816 817 818 819 820 821 822 822 822 823 825 824 821 822 825 826 826 827 827 828 827 827 828 829 830 830 832 833 834 835 836 838 838 838 839 839 840 841 841 841
798 801 803 804 806 807 808 809 810 811 811 812 813 813 814 813 813 813 813 813 813 812 812 812 812 812 812 812 812 812 812 812 812 812 812 812 813 813 813 814 814 814 814 814 814 814 815 816 817 818 819 820 821 821 822 823 823 821 820 822 823 824 825 825 826 825 825 826 827 827 828 829 830 832 833 834 835 836 836 836 837 838 839 840 840
796 798 801 802 804 805 807 808 809 810 811 812 812 813 813 813 813 813 813 813 812 812 812 812 812 812 812 812 812 812 812 812 812 812 812 812 812 812 813 813 813 813 813 813 813 813 813 813 814 816 816 818 818 819 820 820 822 823 821 820 819 820 822 821 822 823 823 823 824 824 825 826 828 829 830 831 832 833 834 834 835 836 837 838 839
793 795 798 800 802 803 805 806 808 809 810 810 811 812 812 812 812 812 812 812 812 812 812 812 812 812 812 812 812 812 811 812 811 811 811 811 811 812 812 812 812 812 812 812 812 812 811 811 812 812 813 815 816 816 817 818 821 823 821 818 818 819 818 815 816 820 820 821 821 821 823 824 825 826 827 828 829 830 831 832 833 834 835 836 837
790 793 795 798 800 801 803 805 806 808 809 809 810 811 811 811 811 811 811 810 811 811 812 812 812 812 812 812 812 811 811 811 811 811 811 811 811 811 811 811 811 811 811 810 810 810 810 810 810 810 810 812 813 815 815 816 818 820 819 817 816 817 815 813 813 814 814 816 818 818 820 821 822 823 823 825 826 827 828 829 831 832 833 834 835
787 790 793 795 797 799 801 803 805 806 807 808 808 809 810 810 810 810 810 810 810 811 812 812 812 811 811 811 811 811 811 810 810 810 810 810 810 810 810 810 810 810 809 809 809 809 808 808 808 808 808 809 811 812 813 814 816 817 816 816 815 814 814 814 812 810 810 812 814 815 816 817 818 819 820 821 823 824 825 827 829 830 831 832 833
785 788 791 793 795 797 799 801 803 804 805 806 807 808 809 809 810 810 810 810 810 810 811 811 811 811 811 811 811 810 810 810 810 810 810 810 809 809 809 809 809 809 808 808 807 807 807 807 807 806 806 806 807 809 810 812 814 813 813 813 814 813 813 813 811 809 809 809 810 811 812 813 814 816 817 819 820 821 823 824 826 827 828 829 830
783 786 788 791 793 795 797 799 801 803 804 805 805 806 807 808 809 809 809 809 809 810 810 810 810 810 810 810 810 810 809 809 809 809 809 809 809 808 808 808 808 808 807 806 806 805 805 805 805 805 804 804 804 805 806 808 810 810 810 811 811 811 813 813 812 809 808 808 808 807 808 809 811 812 813 815 817 819 821 822 824 825 825 826 828
781 784 787 789 791 793 795 797 799 801 802 803 804 805 806 807 807 808 808 809 809 809 809 809 809 809 809 809 809 809 809 808 808 808 808 808 808 808 807 807 807 806 806 805 805 804 803 803 802 802 802 802 802 803 804 805 806 807 808 809 809 810 811 811 811 810 808 808 807 804 804 806 807 809 810 812 814 817 818 820 822 823 823 823 825
780 783 785 787 789 791 793 795 797 798 800 801 802 803 804 805 806 807 807 807 808 808 808 808 808 808 808 808 808 808 808 808 807 807 807 807 807 807 807 806 806 805 805 804 803 803 802 801 800 800 800 799 799 800 801 801 803 805 806 806 807 807 807 807 808 809 807 806 806 803 801 801 803 805 807 809 812 815 816 817 819 820 820 820 821
Wind_Speed
10 10 10 13 14 12 10 10 10 9 8 7 6 6 9 11 13 14 14 15 14 14 16 18 18 17 17 17 17 18 18 15 14 14 15 15 15 16 16 15 15 14 12 12 12 12 11 10 10 10 11 12 13 13 13 13 14 16 18 19 20 19 21 22 20 17 18 18 18 19 19 18 18 18 18 17 15 14 14 14 15 16 17 17 16
10 10 10 12 13 13 11 10 9 9 9 8 7 6 8 11 13 14 15 15 14 14 17 18 18 17 16 17 17 17 16 14 14 14 14 15 15 16 16 14 14 14 12 12 12 12 11 10 10 10 11 12 13 13 13 13 14 16 18 19 20 18 19 22 20 17 16 16 17 18 19 18 17 16 16 15 13 14 14 15 14 15 16 16 16
9 10 10 12 12 13 12 10 9 8 9 8 8 7 8 10 14 14 15 16 14 14 17 18 18 17 16 16 16 15 15 14 14 13 13 14 15 16 14 12 13 13 13 12 12 12 12 11 10 10 10 11 13 14 13 13 14 15 17 19 19 18 18 20 18 16 15 15 17 19 18 17 16 15 15 14 14 15 15 16 16 15 16 15 16
7 9 10 12 12 13 13 11 9 8 8 8 8 8 8 9 13 14 15 16 14 15 17 18 18 16 15 16 16 15 14 14 13 13 13 13 14 14 13 12 13 13 13 12 12 12 12 12 11 10 10 11 12 14 14 13 13 14 15 16 17 16 16 18 18 15 13 15 18 19 16 15 15 15 15 15 16 17 16 15 15 16 15 15 15
5 7 9 12 12 13 14 12 10 8 7 8 8 8 9 9 12 14 15 16 15 15 16 18 18 16 14 15 15 14 14 14 12 12 13 13 14 13 12 12 13 13 13 13 12 11 12 12 10 10 9 10 11 13 13 13 13 14 14 14 14 13 14 17 19 15 12 13 14 14 13 14 14 14 15 16 15 16 16 16 15 15 15 14 14
6 5 8 11 11 12 15 14 12 9 8 8 8 8 9 10 11 13 15 16 16 15 16 16 17 15 14 14 14 14 14 13 12 12 13 13 14 14 13 13 14 13 13 13 12 11 12 11 10 9 9 10 10 11 13 13 14 14 13 13 13 13 15 19 19 14 11 11 10 10 11 12 13 13 14 15 14 15 16 16 15 15 14 14 14
9 6 6 10 10 12 15 14 12 11 10 8 8 9 9 10 11 13 14 17 17 17 17 16 17 16 15 14 13 13 13 12 12 13 13 13 15 15 15 14 14 14 13 12 12 11 11 11 9 9 9 10 10 10 13 13 14 13 12 12 12 13 15 16 15 11 8 7 8 9 10 12 12 13 13 13 13 14 14 14 14 14 13 12 13
11 11 9 10 10 13 16 15 13 11 11 9 9 9 10 10 11 12 14 16 18 19 18 17 18 16 16 15 13 13 12 12 13 14 13 13 14 15 15 15 14 14 13 13 12 11 10 10 10 10 10 11 10 11 13 13 13 12 10 10 10 11 13 13 13 12 10 6 8 10 10 11 12 12 12 12 12 13 13 13 13 13 13 12 12
12 14 14 13 12 15 18 17 15 14 13 11 10 10 11 11 11 12 13 16 18 19 18 17 18 17 16 15 14 14 13 12 13 14 14 14 14 14 14 14 14 13 13 13 11 11 10 10 10 10 9 10 11 11 12 12 12 11 9 9 8 9 11 12 11 10 10 8 9 9 9 10 12 12 12 11 11 12 12 12 13 13 13 13 12
14 16 16 14 14 19 20 19 18 16 15 13 12 11 11 11 12 12 14 15 17 18 18 18 18 16 16 15 15 15 14 13 13 15 15 14 14 13 13 13 14 13 13 13 12 12 11 11 10 9 9 10 11 11 12 11 10 10 9 8 8 9 11 12 9 8 7 8 8 8 10 11 12 12 11 11 10 10 11 11 12 13 13 13 12
15 16 16 14 15 18 19 19 18 18 17 15 13 11 10 11 12 12 14 15 16 17 18 18 17 16 16 16 16 16 15 14 14 14 15 15 14 13 13 14 14 14 14 14 13 13 12 10 9 9 10 11 12 11 11 10 9 9 8 7 8 9 10 10 8 6 6 7 9 9 10 11 12 12 10 10 9 9 11 11 12 13 13 12 12
14 16 15 13 14 15 17 17 17 18 18 16 15 13 11 10 11 12 13 15 16 17 17 17 16 16 16 17 17 16 15 15 14 14 15 15 14 14 13 13 14 14 15 14 14 13 12 10 9 9 10 12 12 11 11 10 9 9 8 7 8 9 9 8 4 3 6 9 9 8 9 11 12 12 11 10 10 11 11 12 12 12 12 11 11
13 14 13 11 12 13 14 15 16 17 18 17 16 15 13 11 11 12 12 14 16 17 17 16 16 17 17 17 16 15 15 15 14 14 14 14 14 13 12 13 13 15 16 15 14 13 12 10 9 9 10 12 12 11 11 10 9 8 8 7 8 11 10 8 3 2 7 9 8 7 8 11 11 11 11 10 10 11 11 11 11 11 11 11 11
13 14 13 11 9 12 13 14 15 16 17 17 16 16 15 12 11 11 12 13 15 16 16 16 16 16 16 16 15 15 15 14 14 13 13 13 14 13 12 12 13 15 15 14 13 11 10 9 8 9 10 12 12 12 12 10 9 8 7 7 8 11 9 6 2 3 6 6 6 7 8 11 11 10 10 10 9 10 10 10 11 11 11 10 10
14 15 14 12 9 9 11 12 14 16 17 18 17 17 15 14 12 12 12 13 14 15 15 15 16 16 15 14 14 13 14 14 14 13 13 13 13 13 13 13 14 14 14 13 12 10 9 8 9 9 11 12 12 13 12 10 8 7 6 7 8 8 5 1 1 3 5 5 6 6 10 10 9 10 10 9 9 10 10 10 10 10 10 10 10
14 14 14 13 11 9 7 9 13 16 17 18 18 17 16 15 13 13 13 13 13 14 15 15 15 15 14 14 13 13 14 15 14 13 13 13 12 13 13 14 14 15 14 13 11 10 10 9 9 10 12 13 14 13 11 10 8 7 6 6 6 5 3 1 1 4 4 5 6 6 10 9 8 10 9 9 9 9 9 10 10 10 10 9 9
13 13 13 13 11 11 8 8 12 14 14 16 17 17 17 16 14 14 13 13 13 13 14 14 14 14 13 14 14 13 14 14 14 14 13 13 12 13 13 14 14 14 14 13 12 11 10 10 10 11 14 14 14 12 10 9 8 7 7 5 4 5 3 4 3 4 4 5 5 6 10 9 9 10 8 9 9 9 9 9 9 9 9 8 9
12 12 12 12 11 11 9 8 10 11 11 13 14 17 17 16 16 15 14 13 12 12 13 13 13 13 13 14 14 14 14 13 14 15 14 13 13 13 13 13 13 13 14 14 12 11 10 10 10 12 14 14 13 11 10 8 8 7 6 5 3 5 5 8 4 4 5 5 4 7 10 8 9 10 8 8 8 8 9 8 8 8 8 8 8
11 11 11 11 10 10 9 7 7 7 8 9 11 15 17 17 17 16 14 13 12 12 12 12 12 13 14 14 14 14 14 14 15 15 14 15 14 14 14 13 12 12 13 13 12 11 10 10 12 13 14 13 12 10 8 7 7 7 5 4 2 5 6 6 2 3 5 4 4 9 8 3 6 9 8 8 8 8 8 8 8 8 7 7 8
11 11 10 9 9 9 9 6 6 5 6 6 8 12 16 18 18 16 14 13 12 12 12 12 12 14 15 15 15 14 14 14 16 16 15 16 15 15 14 13 13 11 12 12 11 11 11 12 13 14 14 12 10 8 6 5 7 7 6 4 3 6 5 3 2 2 4 5 5 8 5 1 6 9 7 7 7 7 8 8 8 7 7 7 8
10 10 9 8 8 7 8 7 6 4 5 5 6 10 14 17 17 15 14 13 13 12 11 11 12 14 14 14 14 14 14 15 15 15 15 16 16 15 14 14 13 11 11 10 11 11 12 13 14 15 14 11 9 7 6 5 6 7 7 5 4 5 2 3 1 1 2 4 6 7 3 3 8 9 8 7 6 7 7 8 8 7 7 7 7
8 9 9 7 7 6 6 6 5 4 4 3 5 8 10 13 13 13 14 13 13 12 11 11 13 14 14 15 14 14 14 14 15 16 16 16 17 16 15 15 13 11 11 11 11 11 12 15 15 15 14 11 9 8 7 6 6 7 7 6 6 6 4 2 2 2 1 4 7 5 3 4 9 9 8 7 6 6 7 8 8 6 6 7 6
6 7 8 7 6 5 5 5 5 4 3 3 3 6 8 10 11 11 13 14 14 13 12 12 13 13 14 14 14 14 14 15 17 17 17 18 18 18 16 16 14 12 12 11 11 11 12 15 16 15 13 11 9 8 9 9 7 8 7 7 7 7 5 4 3 3 2 4 6 3 2 6 10 9 8 7 7 6 6 7 7 5 5 6 5
5 5 7 6 6 4 4 4 4 4 3 3 2 5 8 9 10 12 14 15 15 13 12 12 13 13 13 13 13 14 14 15 16 16 17 18 18 18 18 16 14 13 12 12 11 11 12 14 17 15 13 12 9 7 9 11 9 9 9 8 8 7 5 5 5 4 3 5 7 2 1 8 12 9 8 7 6 7 6 7 6 4 5 5 5
4 5 7 6 5 4 4 3 4 4 3 3 3 3 8 9 9 12 14 15 16 15 12 11 12 11 11 12 12 13 14 15 15 16 16 16 17 19 20 17 16 14 14 13 13 13 12 14 16 15 13 12 9 6 8 9 10 9 9 9 8 7 5 5 5 4 4 7 6 2 1 8 14 10 8 7 7 7 6 7 6 3 3 4 3
4 6 7 6 5 5 5 3 4 3 3 3 4 4 6 9 10 10 12 15 14 13 12 12 12 11 12 13 12 11 12 14 14 15 15 16 17 19 20 18 16 16 16 14 14 15 14 15 16 15 14 11 8 7 7 7 9 9 9 9 8 7 6 6 6 4 4 6 5 4 2 7 12 9 8 8 7 7 7 6 6 3 2 2 3
6 7 6 6 5 5 6 4 4 3 3 3 4 5 4 5 8 9 9 12 11 11 11 12 12 12 15 16 13 10 11 11 13 14 15 17 17 18 20 18 16 17 17 15 14 16 15 15 15 14 13 10 8 8 7 7 8 8 8 9 9 8 7 7 6 5 5 5 5 5 3 6 9 8 8 8 8 7 7 6 6 5 2 2 3
7 7 6 6 6 6 6 5 5 4 3 4 4 5 5 5 6 7 8 11 10 10 12 13 12 12 16 16 12 10 11 9 11 12 13 15 15 17 19 18 18 17 17 15 14 15 15 14 14 13 12 10 9 9 8 8 8 8 8 10 9 8 8 7 7 6 6 6 6 6 4 4 7 9 8 8 8 7 7 7 6 6 4 3 3
8 7 6 6 6 7 7 6 6 4 4 3 4 5 5 5 5 4 6 10 9 11 12 10 9 11 14 13 10 11 12 9 10 11 9 10 11 15 19 20 20 17 16 15 14 15 15 14 13 12 11 9 9 9 9 9 9 9 9 10 10 9 10 8 7 7 7 6 7 7 4 3 4 8 9 9 9 8 8 8 7 6 5 4 4
8 6 6 6 6 6 7 7 6 5 4 3 4 5 5 5 5 5 3 4 6 10 10 7 8 9 10 11 11 13 12 11 12 13 10 9 8 12 17 20 19 17 16 14 13 14 14 14 13 12 11 9 9 9 9 9 10 10 10 10 11 11 11 10 8 8 8 7 8 8 5 3 3 5 9 10 9 9 8 9 8 7 6 5 5
7 6 7 6 6 7 7 8 7 7 5 5 5 4 4 4 4 3 4 3 1 4 5 6 8 8 8 9 12 14 12 12 14 14 12 10 9 10 13 16 17 16 16 13 12 12 13 12 12 11 11 10 10 9 9 9 9 11 11 11 11 11 11 11 10 9 9 8 8 7 6 5 4 5 8 11 10 10 10 9 9 7 7 6 6
8 7 7 7 7 8 8 8 8 7 7 6 6 5 5 4 3 3 2 2 1 1 2 3 6 8 9 8 9 11 11 10 12 13 13 13 12 12 11 11 14 15 13 10 10 11 11 11 12 11 10 10 9 9 9 9 9 10 11 12 12 12 12 12 11 11 10 9 8 8 8 7 6 6 7 11 11 11 11 10 11 8 9 7 6
9 8 8 8 7 7 7 8 8 8 8 7 6 6 5 4 4 3 3 2 1 1 1 2 3 6 8 8 8 8 8 8 9 11 13 13 14 15 13 10 12 13 11 10 10 11 11 11 11 11 9 9 9 9 9 10 10 10 11 12 12 12 12 12 12 12 11 10 9 9 9 7 7 6 6 9 12 13 13 12 12 10 10 9 8
10 10 9 8 7 7 7 7 8 8 8 8 7 7 6 5 4 4 3 3 2 1 1 2 3 4 5 6 6 6 7 8 9 10 12 13 13 14 14 13 13 12 9 10 11 11 11 11 11 10 9 10 10 10 10 11 11 11 11 11 12 12 12 12 13 13 12 11 10 9 9 8 9 8 8 9 11 12 15 15 13 12 11 10 9
11 10 10 9 8 8 7 7 8 8 9 8 8 7 7 6 6 5 4 3 2 2 2 2 3 3 4 4 5 6 7 8 10 10 11 13 13 13 13 13 14 14 12 11 12 11 11 11 11 10 10 11 11 11 11 11 12 11 12 12 12 12 12 12 13 13 13 12 11 10 9 9 9 9 9 11 12 11 14 17 15 13 13 11 11
11 11 11 10 9 8 7 7 7 7 8 8 7 7 6 6 6 6 5 4 3 2 2 3 3 3 3 3 3 4 5 7 9 10 10 12 14 14 13 14 15 16 15 12 13 13 11 12 11 10 11 11 12 12 11 11 12 12 11 12 12 12 12 13 13 14 14 13 13 12 11 10 9 9 9 11 14 13 12 16 18 16 14 12 12
12 12 12 11 10 9 7 7 6 6 5 6 6 6 6 6 6 6 5 5 3 3 3 3 3 3 3 3 3 4 4 5 7 9 10 13 15 15 13 15 18 18 15 13 14 14 11 11 11 12 12 12 12 13 12 11 11 11 12 12 13 13 13 14 14 14 15 15 14 13 13 12 11 10 9 9 11 14 13 13 16 18 17 15 13
12 12 12 12 10 9 8 7 6 5 4 3 3 4 5 5 5 6 5 5 3 3 3 2 2 3 3 3 4 4 4 4 6 7 10 13 14 16 15 15 17 18 17 15 15 15 13 13 12 12 13 14 14 14 14 13 11 11 11 13 14 13 14 14 14 15 16 16 16 15 14 13 12 11 11 11 10 12 14 13 15 17 19 19 16
13 12 12 12 11 10 8 7 6 4 4 2 1 1 3 4 6 6 6 6 4 4 3 2 2 2 2 3 4 4 4 4 4 5 7 10 12 16 17 14 13 16 17 17 17 15 15 17 15 13 13 15 15 14 15 13 11 11 11 12 14 14 14 13 14 16 17 17 17 16 15 13 14 14 13 13 13 12 13 14 15 17 19 21 19
14 13 12 12 11 10 9 7 6 4 3 1 1 2 3 4 6 6 7 7 6 4 3 2 2 2 2 3 4 3 4 4 4 4 5 7 9 12 15 14 12 12 14 18 20 18 16 17 17 16 16 17 17 15 15 14 12 11 11 11 12 14 14 15 15 16 17 17 18 17 16 15 15 15 15 15 15 14 14 14 15 15 17 20 20
15 14 13 12 11 10 9 8 6 4 3 2 3 3 4 4 5 6 7 7 7 6 2 2 2 2 2 3 3 3 3 4 4 4 5 5 7 9 11 13 13 12 13 15 17 18 18 16 16 17 18 19 18 16 14 12 14 13 11 11 12 14 14 15 16 16 17 17 18 19 18 17 16 16 16 17 17 16 16 16 15 14 15 18 19
17 16 15 13 12 11 10 9 8 6 4 3 3 3 4 4 4 5 6 6 7 6 4 3 3 2 2 2 2 3 3 4 4 4 5 5 6 7 8 10 12 12 14 15 15 17 17 17 18 20 20 20 20 19 17 13 15 15 11 10 11 14 15 16 17 18 18 18 18 20 19 18 18 16 16 17 18 17 17 17 16 15 15 16 17
18 17 16 14 13 12 11 10 9 8 6 5 4 4 3 4 4 5 6 6 5 5 3 2 2 2 1 1 1 2 4 4 5 4 5 5 6 7 7 8 10 11 13 14 16 17 18 20 23 23 20 20 21 21 20 16 16 16 11 9 8 9 11 14 18 20 19 19 19 20 19 19 18 18 17 17 17 17 17 17 17 17 16 16 15
18 17 17 16 15 14 12 11 10 9 8 7 6 5 4 3 4 3 4 4 3 4 3 2 2 3 2 2 2 3 5 5 6 6 6 6 6 7 8 9 10 11 11 12 14 16 18 21 24 23 21 21 20 20 19 16 16 15 10 8 8 8 8 10 15 19 20 20 21 21 19 19 19 19 18 17 17 17 17 17 17 18 18 18 16
18 18 18 17 16 15 14 13 12 10 9 9 8 7 5 4 3 2 2 2 3 4 4 4 4 3 3 2 3 4 5 6 6 6 7 7 7 8 8 9 10 12 12 13 14 14 16 18 21 24 23 23 22 21 20 19 21 20 14 9 7 6 7 9 12 14 19 21 21 22 21 19 19 19 19 18 17 17 17 17 18 17 18 19 18
19 18 18 18 16 15 15 14 13 11 11 10 9 7 5 4 4 2 2 1 2 4 4 3 3 3 3 3 3 4 5 6 7 7 7 7 8 8 8 9 10 11 13 13 14 13 14 16 19 22 23 25 26 21 19 22 27 27 24 20 16 11 10 10 8 8 14 20 20 21 22 21 21 19 19 19 18 17 17 17 18 18 18 19 19
20 19 17 17 17 16 15 16 13 12 12 11 10 8 6 5 4 3 2 1 2 3 2 2 1 2 3 3 4 4 4 6 7 7 8 8 8 9 9 10 11 11 13 14 14 14 15 16 17 19 21 24 27 25 21 21 25 29 32 32 26 22 19 15 10 7 8 13 18 19 21 22 22 21 20 19 18 18 17 16 17 19 18 19 19
20 19 18 17 18 17 16 16 14 12 12 12 10 8 7 6 5 4 3 2 3 3 2 2 1 1 2 3 3 4 5 5 6 7 8 9 9 10 10 10 11 12 12 13 14 14 15 16 17 18 21 23 26 29 28 24 23 25 31 33 26 21 22 21 17 14 8 5 11 16 19 22 22 22 21 19 18 18 17 17 17 18 19 19 20
19 19 18 17 18 17 16 16 14 13 13 13 12 10 8 7 6 5 4 3 3 3 3 2 1 1 1 2 3 4 4 4 6 6 7 8 9 10 11 12 12 12 13 14 15 15 15 17 17 18 21 24 27 30 31 28 27 25 23 27 25 19 19 22 22 19 14 9 7 8 13 18 20 22 23 21 19 18 18 18 18 17 18 19 20
19 18 18 17 17 17 17 16 15 14 13 14 12 11 9 8 6 6 5 4 4 3 2 2 2 2 1 2 2 2 3 3 4 5 6 8 9 10 11 13 13 14 14 14 15 16 16 17 17 19 20 23 25 26 29 29 30 28 21 21 23 20 16 16 18 20 17 13 11 8 10 13 14 16 20 21 20 19 19 18 18 18 18 19 19
18 18 17 16 16 17 17 17 16 15 14 14 14 12 10 9 7 7 6 6 5 4 4 3 3 3 2 2 2 2 3 3 4 5 5 6 8 9 11 13 14 15 16 16 16 16 17 17 17 18 19 21 22 22 26 28 29 29 25 22 24 23 18 14 15 18 17 14 12 10 12 14 13 15 17 18 20 20 21 20 19 18 18 18 19
Wind_Direction
112 128 140 145 146 144 141 135 131 127 125 133 133 135 150 163 165 160 160 152 148 158 158 156 157 155 151 149 150 151 153 151 148 144 137 134 136 134 132 132 130 128 125 123 121 118 116 113 108 108 109 109 109 109 110 112 109 103 102 102 99 97 101 100 94 93 95 95 96 96 94 92 91 91 90 88 84 81 79 81 83 82 82 82 81
115 128 142 149 149 145 144 143 138 130 127 137 142 137 147 162 166 163 160 147 147 164 161 159 160 157 155 152 152 153 156 154 149 145 141 141 143 141 139 138 137 136 133 124 123 121 117 115 110 113 116 113 114 113 115 118 114 109 109 108 102 99 103 104 97 95 98 97 97 95 92 91 91 91 90 89 87 86 88 86 84 83 83 85 82
115 125 140 152 151 146 147 149 142 131 128 136 144 139 142 160 167 165 160 147 149 167 164 163 163 159 158 155 154 156 159 155 151 146 145 146 148 148 144 142 140 138 136 129 128 126 120 119 116 118 120 119 119 117 119 123 119 115 116 116 110 104 103 104 98 96 103 103 99 94 90 88 88 87 86 89 90 87 90 90 86 87 87 86 82
107 119 136 153 152 150 150 149 145 133 128 136 143 138 138 154 165 163 160 152 152 167 165 166 166 161 160 158 156 159 160 156 153 150 147 148 152 153 147 146 142 138 137 135 133 128 125 123 120 121 122 122 121 120 123 126 124 119 121 123 120 111 103 102 95 98 111 110 100 91 89 88 84 84 85 88 90 86 89 90 87 88 87 85 81
101 105 122 146 149 152 150 147 145 136 132 138 140 137 135 146 163 163 163 157 154 165 164 168 167 162 163 161 160 162 161 156 156 154 149 150 156 156 152 150 142 138 139 137 133 127 128 128 123 124 123 123 124 126 129 129 127 122 123 124 121 112 100 95 90 97 113 113 101 87 88 91 86 84 87 89 89 87 89 89 86 87 85 83 82
105 88 108 134 144 153 150 148 146 140 138 139 139 138 135 143 161 165 166 161 156 161 162 167 168 165 164 163 165 164 163 159 159 158 152 150 155 156 153 150 143 140 139 137 134 131 131 131 130 128 127 128 129 134 135 132 130 126 124 122 116 107 102 97 86 89 102 105 100 89 92 94 91 88 89 91 90 89 90 88 84 85 83 81 81
106 104 117 137 148 154 149 149 149 144 138 138 139 140 139 140 156 166 168 162 159 159 161 169 170 168 165 166 169 165 164 161 160 160 154 149 153 156 153 150 147 144 140 137 137 137 135 136 137 132 132 133 134 141 139 134 133 132 125 117 113 106 107 104 88 82 86 96 107 101 97 95 97 95 94 94 92 92 92 90 87 87 87 83 80
99 110 123 138 148 154 151 149 150 145 137 139 144 144 143 141 150 164 169 166 164 162 164 171 172 170 166 167 169 165 166 163 158 161 157 150 153 158 158 156 154 151 143 140 141 140 139 140 138 136 139 138 141 145 143 140 138 137 124 113 115 111 108 107 95 84 75 87 113 101 97 100 101 101 99 97 94 94 91 91 92 91 89 84 81
87 99 114 126 142 156 156 153 154 147 142 146 152 151 148 147 149 158 168 169 167 166 167 171 172 170 167 168 169 166 165 162 158 160 159 156 160 162 163 163 160 155 148 146 146 143 142 144 142 145 145 144 148 148 148 146 142 139 126 112 114 115 108 105 100 84 78 97 110 96 94 107 107 104 106 101 97 97 95 96 96 91 90 88 86
81 90 104 113 137 155 157 156 157 151 150 153 155 156 154 153 154 159 166 169 168 169 170 170 172 171 169 170 170 168 164 162 160 161 162 164 167 165 163 162 160 155 151 148 147 147 147 150 151 150 147 150 153 150 153 150 144 139 127 113 109 113 108 105 97 82 93 108 106 95 95 104 106 105 109 104 99 101 108 109 99 93 93 91 89
83 90 98 112 137 153 158 159 159 155 156 158 154 156 160 160 159 163 164 167 170 171 171 170 172 172 171 170 170 170 167 165 161 162 165 168 170 168 164 161 159 154 150 150 152 155 155 160 157 150 149 153 154 151 153 151 146 138 125 111 101 106 106 103 95 84 98 105 101 103 101 100 102 106 108 101 98 99 104 103 94 94 93 90 88
83 93 98 119 143 152 157 162 164 159 162 161 154 157 162 166 165 165 166 168 171 170 171 173 174 173 172 169 169 171 170 167 163 167 169 171 173 171 169 164 161 156 154 157 162 163 162 166 158 150 154 156 154 151 152 151 147 135 122 108 101 110 110 97 87 91 96 101 107 109 101 96 99 104 104 98 95 94 94 95 92 93 91 90 87
80 93 97 114 145 154 154 167 170 165 167 162 156 161 161 166 171 169 169 171 172 174 176 179 179 175 174 171 171 172 172 170 168 175 175 175 178 176 174 169 165 161 162 164 168 171 169 168 160 152 159 162 154 150 152 150 145 132 117 102 108 118 110 92 83 136 104 103 110 105 94 95 100 102 103 99 94 93 93 92 90 89 87 86 82
82 92 98 102 135 153 156 168 170 171 175 166 163 167 162 165 175 176 174 176 178 179 181 182 181 178 177 175 172 173 174 175 176 180 182 182 183 180 179 175 170 167 167 168 172 176 170 164 158 152 162 164 154 152 152 147 140 129 116 98 114 124 109 87 76 121 111 107 106 102 103 102 102 101 103 101 95 96 93 90 89 87 84 82 82
82 89 96 98 108 136 161 170 170 180 182 174 171 171 167 166 175 183 181 183 184 183 184 181 180 179 180 181 176 175 177 180 181 180 185 188 185 183 182 179 176 171 169 172 174 174 165 160 153 149 158 158 152 151 148 143 135 125 119 102 119 138 129 105 291 126 119 111 106 103 109 112 110 104 106 104 99 97 93 91 90 86 84 80 80
80 84 89 95 95 106 147 165 167 181 185 180 178 176 174 171 175 185 186 187 188 186 186 182 181 181 181 185 183 180 178 181 183 180 185 191 187 184 183 180 178 172 171 175 176 173 166 159 151 149 153 151 149 151 146 140 131 127 122 109 130 155 156 333 327 137 130 114 116 110 109 118 119 109 111 110 104 100 95 92 90 87 84 79 77
77 83 88 91 91 96 112 143 164 179 183 181 182 183 181 178 179 184 186 187 190 190 187 185 185 186 186 186 187 184 180 183 184 181 185 192 189 186 184 182 180 173 173 180 180 178 170 159 152 152 152 149 150 149 145 139 132 131 120 107 136 168 147 51 52 130 124 117 116 116 117 119 117 114 116 113 108 104 99 96 92 88 84 78 75
71 75 84 89 90 95 104 127 155 173 180 181 186 189 187 185 185 184 185 187 190 193 190 189 191 192 191 187 187 184 184 188 186 183 184 191 191 188 189 186 182 176 175 183 187 185 171 158 156 156 154 150 150 149 147 145 138 135 126 112 129 175 132 71 74 124 116 121 100 123 130 117 114 120 121 116 114 110 103 101 96 89 84 77 72
68 68 72 81 89 95 102 116 136 160 182 188 191 196 196 191 189 186 184 187 190 193 192 192 194 193 190 188 186 185 186 190 190 187 186 192 193 189 194 190 183 178 178 185 190 189 174 162 159 156 155 151 150 154 155 161 158 150 144 130 121 170 137 57 33 126 132 142 98 128 143 120 121 127 125 122 120 116 110 105 97 91 86 79 74
72 69 64 69 81 94 103 108 121 146 177 190 194 199 203 195 188 188 185 189 191 193 193 193 195 192 190 189 188 188 188 191 194 192 191 193 193 191 195 193 185 181 179 184 189 187 176 165 162 158 156 153 152 156 158 172 183 179 170 161 140 153 151 344 328 124 142 146 116 134 159 193 137 133 131 129 125 120 117 109 101 95 88 82 79
85 77 66 64 66 80 97 103 112 128 155 177 195 198 206 198 186 189 189 192 194 194 198 196 195 193 192 193 192 191 187 193 196 193 194 194 193 192 195 194 187 183 179 179 186 185 176 167 166 163 158 156 157 159 163 168 186 194 189 180 163 164 204 305 222 161 131 135 137 146 183 188 139 135 137 134 133 128 120 113 107 100 92 90 85
94 86 72 66 62 60 75 92 96 104 131 146 184 188 197 192 182 192 193 192 195 195 201 200 197 195 195 196 195 192 187 193 195 192 193 193 195 194 193 195 189 184 179 174 180 182 177 172 170 166 162 161 162 170 179 177 188 196 197 187 185 213 234 242 222 235 166 132 144 159 217 170 138 141 146 140 141 134 124 118 114 112 108 105 96
80 84 78 67 65 56 51 67 71 77 104 111 168 177 176 178 178 193 192 190 196 197 200 201 200 198 197 197 196 195 191 193 193 190 192 192 195 195 192 195 191 185 180 173 174 179 181 178 175 171 169 168 167 181 185 182 191 191 196 199 206 229 216 193 232 236 191 140 143 177 239 150 142 151 153 148 150 141 130 125 121 121 115 110 101
74 83 84 69 68 68 56 58 54 57 73 92 133 156 162 170 176 188 191 190 195 198 201 207 207 203 201 200 200 200 196 197 192 185 189 192 191 192 195 196 192 189 184 175 172 179 181 181 181 176 178 187 186 191 188 179 181 186 195 208 215 222 207 200 221 220 193 146 143 169 229 151 148 158 163 156 156 149 140 132 130 127 116 113 109
85 85 80 70 72 78 73 61 53 50 45 83 94 132 165 174 177 186 190 190 195 198 202 211 214 211 209 206 208 205 198 199 192 184 187 187 185 189 193 193 192 190 184 173 172 177 174 177 183 185 195 206 200 191 199 181 170 183 197 207 217 213 203 212 222 219 180 156 166 207 266 160 151 159 172 165 163 157 153 143 141 146 131 140 133
88 79 76 69 67 69 78 70 58 57 34 74 90 99 161 179 184 182 181 188 193 196 204 211 214 217 215 213 218 211 199 200 188 187 193 186 186 190 189 188 189 188 182 176 176 177 175 176 182 195 205 208 199 189 209 197 178 189 198 205 214 211 206 214 218 217 186 170 202 244 251 172 156 162 176 171 173 165 161 156 153 167 161 167 159
84 81 80 74 69 61 69 71 60 61 38 55 89 92 103 154 180 175 178 195 193 193 210 216 214 219 218 217 224 214 206 211 191 189 198 191 187 188 186 184 188 187 183 184 182 179 182 182 183 197 205 200 197 194 201 207 200 199 200 205 210 208 209 215 208 206 206 180 202 243 243 186 165 167 180 177 182 176 170 170 166 172 161 151 153
87 84 80 74 72 62 62 66 61 60 47 47 68 87 87 97 146 163 189 199 189 198 215 219 215 216 218 216 222 220 219 226 208 201 202 194 189 189 186 185 191 191 187 191 188 184 189 189 186 196 203 200 201 199 200 207 213 216 213 209 208 209 211 218 208 193 204 196 213 251 255 208 177 170 182 184 189 188 182 180 176 179 175 162 158
94 88 84 75 73 70 66 65 62 59 57 59 60 75 86 84 97 120 186 192 196 214 214 215 214 214 223 221 221 230 224 215 216 222 215 204 197 192 189 190 194 193 193 196 192 191 195 193 190 196 201 206 205 202 208 209 209 216 221 217 213 216 211 214 216 201 200 202 216 231 232 229 191 177 186 192 197 197 193 191 186 186 187 180 178
102 97 92 82 76 76 72 67 61 56 59 68 66 68 76 73 75 78 105 162 214 225 216 225 222 211 224 225 223 233 230 214 214 218 212 208 202 189 187 194 197 194 197 199 198 198 200 199 197 200 200 208 213 206 212 217 214 213 217 221 218 219 216 210 215 212 207 202 200 203 218 252 226 197 192 192 200 204 202 197 196 199 195 187 185
110 103 97 90 84 80 73 69 63 54 56 69 70 62 67 65 64 72 80 81 177 223 230 248 238 228 229 222 218 223 228 226 220 215 210 204 204 203 193 196 199 199 200 200 204 205 206 206 202 206 204 209 217 208 210 219 223 219 215 220 218 218 218 213 215 216 212 204 197 201 230 251 239 229 205 194 198 202 205 204 207 206 201 199 188
117 106 100 97 89 82 75 69 66 58 54 62 65 60 58 58 58 59 63 54 35 191 236 250 251 250 247 237 224 223 225 224 219 219 222 210 206 215 207 205 207 204 204 203 208 209 209 210 208 216 214 214 222 217 218 220 228 231 222 219 217 218 216 213 214 215 213 209 204 199 213 238 238 236 214 201 204 205 204 206 214 210 205 212 197
117 113 110 106 97 89 83 73 68 63 58 58 57 57 52 52 61 51 35 20 325 273 253 253 271 267 259 251 239 238 237 227 222 222 228 217 208 214 215 227 229 216 209 203 210 213 209 209 212 222 220 218 226 223 223 223 227 235 232 223 218 219 217 213 214 216 214 210 212 201 198 218 220 227 229 213 214 216 208 201 211 215 210 214 206
121 126 120 113 109 98 93 82 75 69 64 61 58 58 53 52 52 46 35 13 341 321 301 277 274 275 278 269 252 249 242 236 235 229 232 225 214 217 218 231 237 227 216 206 213 218 213 212 211 215 215 216 223 222 224 229 230 231 233 230 222 220 217 216 215 214 214 211 215 211 203 205 200 210 229 221 219 220 211 200 205 213 213 212 206
127 131 126 121 120 112 105 96 86 76 70 65 64 62 57 55 49 44 39 18 355 343 328 311 288 273 279 281 273 268 254 245 239 233 238 233 227 227 221 227 234 227 225 217 215 223 221 218 214 213 215 217 223 223 223 234 237 231 230 229 227 223 217 219 220 213 213 214 218 218 213 212 205 202 206 211 219 224 213 206 207 210 212 213 206
135 135 133 132 130 127 121 111 101 86 77 68 66 63 60 61 54 47 41 33 15 352 345 321 307 300 296 283 283 287 276 263 249 239 238 233 233 237 227 224 229 225 227 222 216 224 229 225 220 218 221 222 225 226 224 231 239 236 229 226 226 226 220 220 223 220 217 217 219 220 217 216 215 210 206 210 219 226 221 212 210 209 209 212 211
145 144 142 143 142 140 138 129 119 102 87 73 69 62 60 64 55 52 47 41 29 10 354 320 306 309 310 304 311 306 291 276 261 249 244 235 229 238 238 228 227 225 224 222 218 224 231 231 226 220 225 227 228 232 229 223 229 235 230 226 224 224 223 220 220 221 222 222 220 219 218 218 220 221 221 219 218 222 225 220 214 214 212 210 212
155 155 152 153 153 152 151 144 136 124 109 91 85 69 69 68 52 55 47 36 42 24 349 318 319 310 310 325 331 322 309 291 266 255 253 247 233 236 240 232 230 228 226 228 224 225 228 232 234 229 228 232 233 238 239 231 228 232 229 225 223 222 223 223 222 220 222 225 223 223 221 218 221 224 225 225 225 221 220 221 217 219 219 215 214
165 167 164 164 163 160 160 153 148 141 128 120 145 130 95 71 46 45 35 25 30 22 0 342 327 301 312 330 331 326 320 312 283 267 261 257 249 243 242 237 232 227 230 232 227 225 228 230 234 238 239 241 241 239 245 250 243 234 233 228 219 220 222 221 224 224 224 228 227 228 226 224 224 223 225 224 225 223 215 214 211 214 219 221 217
173 175 174 175 172 167 166 162 159 154 157 166 114 75 65 57 41 34 27 23 19 13 19 18 341 310 326 323 326 328 323 323 303 284 266 256 256 252 247 246 240 230 231 232 229 229 233 234 234 238 243 248 250 244 242 253 252 237 240 240 222 219 221 215 221 224 224 228 228 230 228 228 228 225 227 225 223 221 213 210 208 208 213 223 222
177 179 182 182 180 177 174 170 165 163 176 152 90 60 43 43 39 30 21 21 17 7 7 21 2 347 342 319 318 333 330 325 312 296 283 264 257 256 251 249 247 243 240 238 237 236 235 237 236 236 238 243 250 247 238 247 256 242 231 239 232 227 225 216 219 223 224 227 228 231 230 230 231 229 228 227 225 222 215 212 211 208 209 221 227
181 182 187 188 187 187 182 176 170 163 160 145 123 94 59 46 43 35 22 21 22 13 1 6 359 345 339 331 326 328 332 327 313 301 291 281 271 265 256 250 249 249 250 249 248 243 236 234 234 237 239 242 245 243 239 242 250 246 227 226 234 231 229 226 225 224 223 224 225 229 230 231 233 232 229 226 226 224 219 216 212 211 207 214 219
185 185 190 192 190 191 188 182 176 168 159 158 153 134 106 80 72 56 37 32 34 30 27 32 14 351 331 328 329 325 330 321 309 300 287 281 276 276 269 258 251 249 250 250 247 241 237 236 236 239 241 244 246 238 237 237 243 252 238 222 233 227 223 226 229 228 222 221 224 226 226 228 229 229 229 224 224 223 221 218 214 212 207 207 208
188 189 192 195 194 194 193 186 180 175 165 162 159 145 140 119 97 74 59 62 63 56 50 40 4 345 324 302 304 321 322 311 306 301 292 285 275 275 276 269 260 255 252 251 249 241 238 239 236 235 235 240 245 236 230 227 234 251 250 226 231 234 230 222 221 226 225 223 224 225 225 226 225 226 227 223 224 224 223 222 216 213 210 209 210
192 192 192 195 196 196 194 188 182 179 171 165 163 162 167 164 160 166 137 130 91 56 38 17 349 332 323 305 298 308 308 302 303 300 297 295 284 276 274 274 272 267 260 255 254 248 243 243 235 233 231 230 234 236 233 228 230 245 259 254 234 232 246 232 216 217 220 223 226 226 225 225 224 223 225 224 225 224 223 222 218 215 212 210 212
193 192 192 194 195 196 194 188 184 181 175 168 168 173 179 178 184 185 146 122 74 55 42 27 358 335 327 313 295 291 293 294 297 295 294 294 289 285 276 273 273 271 270 263 259 254 250 249 240 235 233 228 227 230 233 230 229 239 251 257 253 254 271 264 242 223 212 214 222 225 224 224 225 225 224 223 224 224 221 220 219 219 215 211 212
192 191 191 192 194 196 192 189 187 183 178 173 169 174 180 175 171 164 136 93 90 95 83 69 21 343 325 312 295 284 281 282 287 290 290 289 287 285 280 276 273 270 273 270 265 259 253 251 245 237 233 230 227 227 228 224 225 233 240 246 252 257 267 273 266 257 222 205 212 221 223 221 221 224 226 224 224 225 222 219 222 223 218 213 212
190 190 190 191 193 195 194 191 190 186 180 177 173 179 189 182 172 172 164 137 122 135 144 149 129 357 323 314 304 294 289 278 278 282 284 286 288 287 283 278 275 272 271 269 266 263 258 255 250 242 236 230 227 230 232 223 218 227 231 234 243 255 263 270 270 264 264 232 211 215 219 219 218 220 224 225 226 226 222 218 220 221 218 214 213
189 189 188 189 190 193 194 192 192 189 182 179 177 180 185 182 183 186 176 158 148 160 168 168 182 203 275 307 307 302 296 282 278 277 277 281 283 285 284 280 277 276 272 269 268 266 264 262 257 250 243 238 235 233 232 225 218 222 223 224 232 245 255 262 267 262 262 270 250 217 207 208 214 219 222 224 225 226 224 219 218 220 218 214 213
187 187 185 186 187 190 192 192 194 192 185 181 180 180 179 182 190 185 177 172 166 176 181 178 201 223 239 272 290 298 298 289 283 278 272 275 277 279 280 280 279 277 274 272 271 270 268 267 264 258 251 247 243 235 231 229 224 222 221 217 221 230 239 246 254 256 255 259 268 260 222 208 211 216 220 222 221 223 225 221 217 221 219 213 211
182 183 183 184 186 188 192 194 196 194 189 185 183 181 180 185 190 181 179 180 176 183 188 190 210 234 250 259 268 277 286 285 282 277 269 268 272 273 274 276 276 274 273 272 272 271 268 267 266 262 257 252 245 235 231 230 226 224 224 219 215 218 224 227 236 248 250 248 256 266 257 246 227 211 214 218 222 225 224 222 219 221 222 214 208